User: anonymous
Location: NC_16_and_73
(35.4490°N, 81.0150°W)
Time: 21:50:11
(UTC-04:00)
Language:

Cosmos-2242 - Orbit

View from above orbital plane
View from above orbital plane
View from above satellite
View from above satellite

Ground track
Ground track

The orbit data is extracted from the following two-line orbital elements,

1 22626U 93024A   14244.24763302  .00000613  00000-0  67308-4 0  1820
2 22626 082.5208 282.5532 0018211 261.3267 098.5887 14.86000890154564
Epoch (UTC): 01 September 2014 05:56:35
Eccentricity: 0.0018211
inclination: 82.5208°
perigee height: 598 km
apogee height: 623 km
right ascension of ascending node: 282.5532°
argument of perigee: 261.3267°
revolutions per day: 14.86000890
mean anomaly at epoch: 98.5887°
orbit number at epoch: 15456

The dashed part of the orbit path shows where the satellite is in the earth's shadow,  

DLR